PBD1241 ULLI-ULAA

Flight info

Callsign PBD1241
Flight time 1h 10m
Altitude 35000
Route PETAP1A/28R PETAP T821 MAKOG MAKOG3M
Aircraft B738/M-SDE2E3FGHIRWXY/LB1

Departure

Time 2026-05-03 20:15
Airport Pulkovo Airport (ULLI)

Arrival

Time 2026-05-03 21:25
Airport Talagi Airport (ULAA)
Time Latitude Longitude Altitude Speed Heading
2026-05-03 20:15 59.80846 30.25330 663 ft 161 kts 287°
2026-05-03 20:15 59.81174 30.23156 1437 ft 164 kts 287°
2026-05-03 20:15 59.81494 30.21038 2319 ft 161 kts 286°
2026-05-03 20:15 59.81833 30.18752 2678 ft 189 kts 285°
2026-05-03 20:16 59.82227 30.16076 2914 ft 214 kts 285°
2026-05-03 20:16 59.82655 30.13169 3375 ft 221 kts 285°
2026-05-03 20:16 59.83090 30.10219 3756 ft 220 kts 285°
2026-05-03 20:16 59.83526 30.07254 4203 ft 224 kts 285°
2026-05-03 20:17 59.83958 30.04301 4709 ft 225 kts 284°
2026-05-03 20:17 59.84415 30.01331 5106 ft 234 kts 291°
2026-05-03 20:17 59.85556 29.98857 5415 ft 257 kts 328°
2026-05-03 20:17 59.87275 29.97679 6036 ft 265 kts 342°
2026-05-03 20:18 59.89072 29.96961 6669 ft 268 kts 345°
2026-05-03 20:18 59.90923 29.96322 7305 ft 271 kts 345°
2026-05-03 20:18 59.92795 29.95684 7964 ft 274 kts 345°
2026-05-03 20:18 59.94680 29.95027 8646 ft 276 kts 344°
2026-05-03 20:19 59.96585 29.94346 9336 ft 278 kts 344°
2026-05-03 20:19 59.98501 29.93648 10012 ft 281 kts 344°
2026-05-03 20:19 60.00479 29.92911 10262 ft 300 kts 344°
2026-05-03 20:19 60.02582 29.92116 10432 ft 320 kts 344°
2026-05-03 20:20 60.04828 29.91267 10740 ft 334 kts 344°
2026-05-03 20:20 60.05150 29.91146 10809 ft 335 kts 344°
2026-05-03 20:20 60.07353 29.90319 11369 ft 339 kts 344°
2026-05-03 20:21 60.09681 29.89446 12065 ft 341 kts 344°
2026-05-03 20:21 60.12032 29.88560 12741 ft 344 kts 343°
2026-05-03 20:21 60.14370 29.87674 13400 ft 348 kts 343°
2026-05-03 20:21 60.16766 29.86762 14043 ft 352 kts 343°
2026-05-03 20:22 60.19181 29.85842 14696 ft 354 kts 343°
2026-05-03 20:22 60.21612 29.84914 15349 ft 357 kts 343°
2026-05-03 20:22 60.23260 29.84284 15787 ft 359 kts 343°
2026-05-03 20:22 60.25694 29.83352 16429 ft 361 kts 342°
2026-05-03 20:23 60.28110 29.82425 17064 ft 364 kts 342°
2026-05-03 20:23 60.30659 29.81865 17649 ft 379 kts 357°
2026-05-03 20:23 60.33271 29.83104 18254 ft 397 kts 18°
2026-05-03 20:23 60.35599 29.86281 18783 ft 415 kts 40°
2026-05-03 20:24 60.37347 29.91047 19304 ft 426 kts 54°
2026-05-03 20:24 60.38872 29.96223 19782 ft 431 kts 56°
2026-05-03 20:24 60.40377 30.01514 20253 ft 436 kts 56°
2026-05-03 20:24 60.41895 30.06857 20740 ft 440 kts 56°
2026-05-03 20:25 60.43432 30.12209 21253 ft 443 kts 56°
2026-05-03 20:25 60.44982 30.17547 21746 ft 446 kts 55°
2026-05-03 20:25 60.46588 30.23042 22229 ft 449 kts 55°
2026-05-03 20:25 60.48168 30.28435 22687 ft 453 kts 55°
2026-05-03 20:26 60.49783 30.33953 23153 ft 456 kts 55°
2026-05-03 20:26 60.51423 30.39571 23593 ft 459 kts 55°
2026-05-03 20:26 60.53030 30.45094 23979 ft 462 kts 55°
2026-05-03 20:26 60.54667 30.50730 24358 ft 465 kts 55°
2026-05-03 20:27 60.56311 30.56406 24744 ft 467 kts 55°
2026-05-03 20:27 60.57966 30.62138 25120 ft 470 kts 55°
2026-05-03 20:27 60.59620 30.67875 25493 ft 472 kts 55°
2026-05-03 20:27 60.61285 30.73662 25851 ft 474 kts 55°
2026-05-03 20:28 60.62951 30.79467 26227 ft 477 kts 55°
2026-05-03 20:28 60.64628 30.85326 26592 ft 479 kts 55°
2026-05-03 20:28 60.66305 30.91198 26942 ft 481 kts 55°
2026-05-03 20:28 60.67994 30.97130 27284 ft 483 kts 55°
2026-05-03 20:29 60.69682 31.03073 27630 ft 485 kts 55°
2026-05-03 20:29 60.71375 31.09049 27957 ft 488 kts 55°
2026-05-03 20:29 60.73080 31.15084 28263 ft 490 kts 55°
2026-05-03 20:29 60.74783 31.21130 28579 ft 492 kts 55°
2026-05-03 20:30 60.76489 31.27200 28891 ft 494 kts 55°
2026-05-03 20:30 60.78203 31.33316 29201 ft 496 kts 56°
2026-05-03 20:30 60.79927 31.39486 29502 ft 498 kts 56°
2026-05-03 20:30 60.81642 31.45639 29775 ft 500 kts 56°
2026-05-03 20:31 60.83373 31.51861 30033 ft 502 kts 56°
2026-05-03 20:31 60.85100 31.58088 30281 ft 503 kts 56°
2026-05-03 20:31 60.86829 31.64321 30544 ft 504 kts 56°
2026-05-03 20:31 60.88558 31.70552 30883 ft 502 kts 56°
2026-05-03 20:32 60.90285 31.76794 31229 ft 501 kts 56°
2026-05-03 20:32 60.92005 31.83023 31502 ft 501 kts 56°
2026-05-03 20:32 60.93703 31.89186 31743 ft 502 kts 56°
2026-05-03 20:32 60.95417 31.95433 32022 ft 502 kts 56°
2026-05-03 20:33 60.97283 32.01466 32305 ft 497 kts 48°
2026-05-03 20:33 60.99541 32.06912 32563 ft 490 kts 39°
2026-05-03 20:33 61.01985 32.11786 32851 ft 488 kts 37°
2026-05-03 20:33 61.04420 32.16522 33103 ft 488 kts 37°
2026-05-03 20:34 61.06923 32.21395 33347 ft 489 kts 37°
2026-05-03 20:34 61.09343 32.26166 33621 ft 489 kts 37°
2026-05-03 20:34 61.11793 32.31061 33885 ft 489 kts 38°
2026-05-03 20:34 61.14233 32.35983 34093 ft 489 kts 38°
2026-05-03 20:35 61.16659 32.40906 34304 ft 489 kts 38°
2026-05-03 20:35 61.19031 32.45733 34515 ft 489 kts 38°
2026-05-03 20:35 61.21515 32.50797 34749 ft 488 kts 38°
2026-05-03 20:36 61.26390 32.60743 34835 ft 494 kts 39°
2026-05-03 20:36 61.31305 32.70643 34832 ft 490 kts 38°
2026-05-03 20:37 61.36197 32.80364 34836 ft 484 kts 37°
2026-05-03 20:37 61.41053 32.90083 34840 ft 484 kts 38°
2026-05-03 20:38 61.45907 32.99868 34831 ft 484 kts 38°
2026-05-03 20:38 61.50409 33.10456 34843 ft 491 kts 46°
2026-05-03 20:39 61.54578 33.21866 34827 ft 493 kts 47°
2026-05-03 20:39 61.58729 33.33302 34819 ft 493 kts 47°
2026-05-03 20:40 61.62925 33.44758 34822 ft 494 kts 47°
2026-05-03 20:40 61.67125 33.56220 34814 ft 495 kts 47°
2026-05-03 20:41 61.71297 33.67660 34821 ft 496 kts 47°
2026-05-03 20:41 61.75521 33.79311 34806 ft 497 kts 47°
2026-05-03 20:42 61.79688 33.90866 34803 ft 498 kts 48°
2026-05-03 20:42 61.83902 34.02610 34807 ft 498 kts 48°
2026-05-03 20:43 61.88112 34.14235 34801 ft 496 kts 44°
2026-05-03 20:43 61.93091 34.24074 34812 ft 486 kts 33°
2026-05-03 20:44 61.98318 34.33128 34805 ft 486 kts 33°
2026-05-03 20:44 62.03542 34.42289 34800 ft 486 kts 34°
2026-05-03 20:45 62.08727 34.51565 34797 ft 486 kts 34°
2026-05-03 20:45 62.13779 34.60692 34795 ft 486 kts 34°
2026-05-03 20:46 62.18900 34.69983 34786 ft 485 kts 34°
2026-05-03 20:46 62.24039 34.79341 34785 ft 485 kts 34°
2026-05-03 20:47 62.29171 34.88728 34791 ft 485 kts 35°
2026-05-03 20:47 62.34302 34.98159 34777 ft 484 kts 35°
2026-05-03 20:48 62.39424 35.07611 34787 ft 484 kts 35°
2026-05-03 20:48 62.44429 35.17004 34782 ft 485 kts 36°
2026-05-03 20:49 62.49492 35.26657 34778 ft 486 kts 36°
2026-05-03 20:49 62.54555 35.36350 34775 ft 486 kts 36°
2026-05-03 20:50 62.59614 35.46061 34775 ft 486 kts 36°
2026-05-03 20:50 62.64675 35.55817 34777 ft 486 kts 36°
2026-05-03 20:51 62.69735 35.65616 34777 ft 486 kts 36°
2026-05-03 20:51 62.74786 35.75445 34775 ft 487 kts 36°
2026-05-03 20:52 62.79835 35.85320 34774 ft 487 kts 37°
2026-05-03 20:52 62.84879 35.95228 34773 ft 488 kts 37°
2026-05-03 20:53 62.89930 36.05172 34769 ft 488 kts 36°
2026-05-03 20:53 62.94992 36.15038 34771 ft 488 kts 36°
2026-05-03 20:54 63.00073 36.24966 34774 ft 488 kts 36°
2026-05-03 20:54 63.07640 36.39879 34766 ft 489 kts 36°
2026-05-03 20:55 63.12716 36.49954 34770 ft 490 kts 37°
2026-05-03 20:55 63.17774 36.60034 34766 ft 490 kts 37°
2026-05-03 20:56 63.22751 36.70461 34737 ft 492 kts 43°
2026-05-03 20:56 63.24961 36.76190 34455 ft 487 kts 46°
2026-05-03 20:56 63.27072 36.82081 33870 ft 488 kts 47°
2026-05-03 20:57 63.29178 36.88046 33042 ft 493 kts 46°
2026-05-03 20:57 63.31324 36.94041 32216 ft 496 kts 46°
2026-05-03 20:57 63.33465 36.99919 31579 ft 496 kts 45°
2026-05-03 20:57 63.35653 37.05870 31376 ft 485 kts 45°
2026-05-03 20:58 63.37753 37.11560 31102 ft 477 kts 45°
2026-05-03 20:58 63.39837 37.17217 30839 ft 469 kts 45°
2026-05-03 20:58 63.41884 37.22800 30582 ft 461 kts 45°
2026-05-03 20:58 63.43897 37.28312 30326 ft 455 kts 45°
2026-05-03 20:59 63.45888 37.33775 30050 ft 451 kts 45°
2026-05-03 20:59 63.47861 37.39202 29669 ft 447 kts 44°
2026-05-03 20:59 63.49813 37.44583 29239 ft 444 kts 45°
2026-05-03 20:59 63.51769 37.49986 28838 ft 439 kts 45°
2026-05-03 21:00 63.53688 37.55301 28441 ft 435 kts 45°
2026-05-03 21:00 63.54300 37.56998 28324 ft 434 kts 45°
2026-05-03 21:00 63.57456 37.65770 27664 ft 428 kts 45°
2026-05-03 21:00 63.59315 37.70951 27268 ft 425 kts 45°
2026-05-03 21:01 63.61160 37.76108 26898 ft 421 kts 45°
2026-05-03 21:01 63.62987 37.81225 26491 ft 419 kts 45°
2026-05-03 21:01 63.64803 37.86323 26120 ft 416 kts 45°
2026-05-03 21:01 63.66606 37.91394 25754 ft 413 kts 45°
2026-05-03 21:02 63.68392 37.96430 25383 ft 411 kts 45°
2026-05-03 21:02 63.70172 38.01461 25021 ft 409 kts 45°
2026-05-03 21:02 63.71938 38.06463 24650 ft 407 kts 45°
2026-05-03 21:02 63.73688 38.11432 24293 ft 405 kts 45°
2026-05-03 21:03 63.75435 38.16404 23936 ft 403 kts 45°
2026-05-03 21:03 63.77152 38.21298 23575 ft 401 kts 45°
2026-05-03 21:03 63.78881 38.26239 23196 ft 400 kts 45°
2026-05-03 21:03 63.80623 38.31229 22772 ft 398 kts 46°
2026-05-03 21:04 63.82311 38.36076 22405 ft 395 kts 46°
2026-05-03 21:04 63.84010 38.40967 22049 ft 392 kts 46°
2026-05-03 21:04 63.85693 38.45818 21698 ft 390 kts 46°
2026-05-03 21:04 63.87355 38.50621 21332 ft 387 kts 46°
2026-05-03 21:05 63.89014 38.55425 20970 ft 385 kts 46°
2026-05-03 21:05 63.90665 38.60217 20611 ft 383 kts 46°
2026-05-03 21:05 63.92299 38.64967 20260 ft 381 kts 47°
2026-05-03 21:05 63.93927 38.69710 19913 ft 379 kts 47°
2026-05-03 21:06 63.95543 38.74430 19566 ft 377 kts 47°
2026-05-03 21:06 63.97149 38.79131 19224 ft 375 kts 47°
2026-05-03 21:06 63.98206 38.82229 18985 ft 374 kts 47°
2026-05-03 21:06 63.99797 38.86900 18654 ft 372 kts 47°
2026-05-03 21:07 64.01382 38.91562 18311 ft 371 kts 47°
2026-05-03 21:07 64.02954 38.96195 17954 ft 370 kts 47°
2026-05-03 21:07 64.04525 39.00835 17560 ft 368 kts 48°
2026-05-03 21:07 64.06079 39.05457 17203 ft 366 kts 50°
2026-05-03 21:08 64.07391 39.10457 16871 ft 367 kts 60°
2026-05-03 21:08 64.08491 39.15695 16526 ft 365 kts 63°
2026-05-03 21:08 64.09544 39.20987 16183 ft 363 kts 63°
2026-05-03 21:08 64.10581 39.26220 15841 ft 361 kts 63°
2026-05-03 21:09 64.11626 39.31439 15507 ft 359 kts 63°
2026-05-03 21:09 64.12675 39.36612 15167 ft 357 kts 62°
2026-05-03 21:09 64.13725 39.41756 14845 ft 355 kts 62°
2026-05-03 21:09 64.14771 39.46860 14497 ft 353 kts 62°
2026-05-03 21:10 64.15811 39.51934 14162 ft 352 kts 62°
2026-05-03 21:10 64.16849 39.57001 13829 ft 350 kts 63°
2026-05-03 21:10 64.17879 39.62037 13490 ft 348 kts 63°
2026-05-03 21:10 64.18903 39.67057 13117 ft 347 kts 63°
2026-05-03 21:11 64.19925 39.72076 12753 ft 345 kts 63°
2026-05-03 21:11 64.20929 39.77021 12426 ft 342 kts 63°
2026-05-03 21:11 64.21929 39.81958 12082 ft 340 kts 63°
2026-05-03 21:11 64.22920 39.86865 11756 ft 337 kts 63°
2026-05-03 21:12 64.23906 39.91748 11419 ft 335 kts 63°
2026-05-03 21:12 64.24879 39.96581 11096 ft 333 kts 63°
2026-05-03 21:12 64.25844 40.01393 10774 ft 331 kts 63°
2026-05-03 21:12 64.26804 40.06190 10483 ft 327 kts 63°
2026-05-03 21:13 64.27746 40.10921 10187 ft 324 kts 63°
2026-05-03 21:13 64.28673 40.15585 10045 ft 316 kts 63°
2026-05-03 21:13 64.29572 40.20124 9911 ft 308 kts 64°
2026-05-03 21:13 64.30449 40.24557 9779 ft 301 kts 64°
2026-05-03 21:14 64.31315 40.28940 9526 ft 297 kts 63°
2026-05-03 21:14 64.32154 40.33193 9228 ft 295 kts 63°
2026-05-03 21:14 64.32999 40.37485 8948 ft 293 kts 63°
2026-05-03 21:14 64.33840 40.41767 8668 ft 291 kts 63°
2026-05-03 21:15 64.34668 40.45995 8387 ft 289 kts 63°
2026-05-03 21:15 64.35493 40.50211 8098 ft 287 kts 63°
2026-05-03 21:15 64.36310 40.54397 7818 ft 285 kts 63°
2026-05-03 21:15 64.37121 40.58561 7556 ft 283 kts 63°
2026-05-03 21:16 64.37812 40.62116 7316 ft 282 kts 63°
2026-05-03 21:16 64.38514 40.65732 7069 ft 280 kts 63°
2026-05-03 21:16 64.39307 40.69828 6803 ft 278 kts 63°
2026-05-03 21:16 64.40078 40.73818 6540 ft 276 kts 63°
2026-05-03 21:17 64.40859 40.77866 6276 ft 274 kts 63°
2026-05-03 21:17 64.41373 40.80534 6099 ft 273 kts 63°
2026-05-03 21:17 64.42402 40.85884 5728 ft 271 kts 63°
2026-05-03 21:17 64.43157 40.89824 5536 ft 265 kts 63°
2026-05-03 21:18 64.43903 40.93719 5281 ft 263 kts 63°
2026-05-03 21:18 64.44626 40.97500 5231 ft 253 kts 63°
2026-05-03 21:18 64.45330 41.01196 5030 ft 249 kts 63°
2026-05-03 21:18 64.46027 41.04854 4783 ft 247 kts 63°
2026-05-03 21:19 64.46717 41.08489 4530 ft 246 kts 63°
2026-05-03 21:19 64.47496 41.11969 4259 ft 241 kts 47°
2026-05-03 21:19 64.48811 41.14123 4144 ft 226 kts 18°
2026-05-03 21:19 64.50306 41.14905 4056 ft 215 kts
2026-05-03 21:20 64.51749 41.15291 3965 ft 202 kts
2026-05-03 21:20 64.53121 41.15639 3865 ft 196 kts
2026-05-03 21:20 64.54452 41.15988 3748 ft 193 kts
2026-05-03 21:20 64.55799 41.16290 3536 ft 194 kts 356°
2026-05-03 21:21 64.57028 41.15297 3333 ft 184 kts 321°
2026-05-03 21:21 64.57790 41.13006 3118 ft 178 kts 292°
2026-05-03 21:21 64.58061 41.10278 2935 ft 174 kts 280°
2026-05-03 21:21 64.58223 41.07425 2741 ft 176 kts 279°
2026-05-03 21:22 64.58375 41.04623 2545 ft 178 kts 278°
2026-05-03 21:22 64.58549 41.01761 2398 ft 177 kts 280°
2026-05-03 21:22 64.58722 40.98928 2162 ft 179 kts 278°
2026-05-03 21:22 64.58863 40.96074 1923 ft 175 kts 278°
2026-05-03 21:23 64.58993 40.93305 1706 ft 169 kts 278°
2026-05-03 21:23 64.59117 40.90663 1496 ft 159 kts 278°
2026-05-03 21:23 64.59231 40.88229 1288 ft 147 kts 278°
2026-05-03 21:23 64.59342 40.85897 1088 ft 144 kts 278°
2026-05-03 21:24 64.59451 40.83586 900 ft 144 kts 277°
2026-05-03 21:24 64.59559 40.81278 713 ft 143 kts 278°
2026-05-03 21:24 64.59673 40.78973 492 ft 143 kts 277°
2026-05-03 21:24 64.59782 40.76694 323 ft 141 kts 277°
2026-05-03 21:25 64.59896 40.74414 116 ft 143 kts 277°
2026-05-03 21:25 64.60012 40.72147 33 ft 136 kts 277°
2026-05-03 21:25 64.60077 40.70728 37 ft 56 kts 275°
2026-05-03 21:25 64.60110 40.70003 34 ft 43 kts 276°
2026-05-03 21:26 64.60133 40.69504 36 ft 22 kts 276°
2026-05-03 21:26 64.60146 40.69161 36 ft 21 kts 263°
2026-05-03 21:26 64.60061 40.69053 39 ft 14 kts 187°
2026-05-03 21:26 64.60020 40.69043 39 ft 0 kts 186°
2026-05-03 21:28 64.60013 40.69041 39 ft 3 kts 186°
2026-05-03 21:28 64.59982 40.69033 39 ft 6 kts 186°
2026-05-03 21:28 64.59944 40.69080 39 ft 8 kts 112°
2026-05-03 21:28 64.59935 40.69228 39 ft 11 kts 96°
2026-05-03 21:29 64.59925 40.69425 39 ft 14 kts 96°
2026-05-03 21:29 64.59913 40.69668 39 ft 16 kts 96°
2026-05-03 21:29 64.59900 40.69949 39 ft 19 kts 96°
2026-05-03 21:29 64.59884 40.70152 39 ft 7 kts 124°
2026-05-03 21:30 64.59848 40.70181 39 ft 3 kts 187°
2026-05-03 21:30 64.59813 40.70175 39 ft 7 kts 173°
2026-05-03 21:30 64.59764 40.70246 39 ft 10 kts 142°
2026-05-03 21:30 64.59767 40.70406 39 ft 12 kts 72°
2026-05-03 21:31 64.59765 40.70612 39 ft 14 kts 95°
2026-05-03 21:31 64.59753 40.70863 37 ft 17 kts 97°
2026-05-03 21:31 64.59732 40.71149 39 ft 18 kts 95°
2026-05-03 21:31 64.59722 40.71346 39 ft 10 kts 107°
2026-05-03 21:32 64.59666 40.71388 39 ft 7 kts 185°
2026-05-03 21:32 64.59665 40.71387 39 ft 0 kts 185°